Location: College Park
(38.9810°N, 76.9370°W)
Time: 04:00:19
(UTC-04:00)

Vanguard 1 - All Passes

Search period start: 28 May 2018 00:00
Search period end: 07 June 2018 00:00
Orbit: 650 x 3833 km, 34.3° (Epoch: 27 May)

Date Brightness Start Highest point End Pass type
(mag) Time Alt. Az. Time Alt. Az. Time Alt. Az.
28 May - 09:13:18 10° SSE 09:23:37 15° SE 09:34:22 10° E daylight
28 May - 11:26:32 10° SSW 11:47:00 44° SE 12:05:46 10° E daylight
28 May - 13:49:12 10° WSW 14:12:38 69° SSE 14:29:14 10° E daylight
28 May - 16:16:30 10° W 16:38:03 74° S 16:50:22 10° ESE daylight
28 May - 18:45:05 10° W 19:00:35 46° SSW 19:09:16 10° SE daylight
28 May - 21:17:16 10° WSW 21:19:25 11° SW 21:21:23 10° SW visible
29 May - 09:30:01 10° S 09:44:09 22° SE 09:59:07 10° E daylight
29 May - 11:46:38 10° SW 12:08:03 51° SSE 12:27:20 10° E daylight
29 May - 14:10:29 10° WSW 14:34:04 73° S 14:50:20 10° E daylight
29 May - 16:38:15 10° W 16:59:18 71° SSW 17:11:12 10° ESE daylight
29 May - 19:07:00 10° W 19:21:07 38° SW 19:29:24 10° SSE daylight
30 May - 09:48:21 10° S 10:04:44 29° SE 10:22:15 10° E daylight
30 May - 12:07:05 10° SW 12:29:14 58° SSE 12:48:44 10° E daylight
30 May - 14:31:56 10° WSW 14:55:33 76° S 15:11:24 10° E daylight
30 May - 17:00:01 10° W 17:20:25 65° SSW 17:31:55 10° ESE daylight
30 May - 19:29:08 10° W 19:41:27 29° SW 19:49:13 10° SSE daylight
31 May - 10:07:29 10° SSW 10:25:24 37° SE 10:44:38 10° E daylight
31 May - 12:27:50 10° SW 12:50:32 65° SSE 13:10:02 10° E daylight
31 May - 14:53:30 10° W 15:17:02 77° S 15:32:26 10° E daylight
31 May - 17:21:48 10° W 17:41:23 58° SSW 17:52:30 10° SE daylight
31 May - 19:51:43 10° W 20:01:39 21° SW 20:08:29 10° S daylight
01 Jun - 08:14:42 10° SSE 08:23:42 15° SE 08:33:38 10° E daylight
01 Jun - 10:27:10 10° SSW 10:46:11 44° SE 11:06:34 10° E daylight
01 Jun - 12:48:49 10° WSW 13:11:57 70° SSE 13:31:17 10° E daylight
01 Jun - 15:15:09 10° W 15:38:28 75° S 15:53:24 10° ESE daylight
01 Jun - 17:43:38 10° W 18:02:10 50° SSW 18:12:54 10° SE daylight
01 Jun - 20:15:18 10° W 20:21:43 15° SW 20:26:44 10° SSW daylight
02 Jun - 08:31:25 10° S 08:44:00 21° SE 08:58:39 10° E daylight
02 Jun - 10:47:16 10° SW 11:07:07 52° SSE 11:28:15 10° E daylight
02 Jun - 13:10:01 10° WSW 13:33:28 74° S 13:52:30 10° E daylight
02 Jun - 15:36:50 10° W 15:59:50 72° SSW 16:14:18 10° ESE daylight
02 Jun - 18:05:34 10° W 18:22:46 41° SW 18:33:04 10° SSE daylight
03 Jun - 08:49:46 10° S 09:04:23 28° SE 09:21:57 10° E daylight
03 Jun - 11:07:40 10° SW 11:28:13 59° SSE 11:49:46 10° E daylight
03 Jun - 13:31:21 10° WSW 13:55:01 77° S 14:13:41 10° E daylight
03 Jun - 15:58:33 10° W 16:21:04 67° SSW 16:35:05 10° ESE daylight
03 Jun - 18:27:43 10° W 18:43:10 33° SW 18:52:54 10° SSE daylight
04 Jun - 09:08:57 10° SSW 09:24:52 36° SE 09:44:27 10° E daylight
04 Jun - 11:28:22 10° SW 11:49:28 66° SSE 12:11:12 10° E daylight
04 Jun - 13:52:49 10° W 14:16:36 77° S 14:34:49 10° E daylight
04 Jun - 16:20:18 10° W 16:42:08 60° SSW 16:55:43 10° SE daylight
04 Jun - 18:50:15 10° W 19:03:24 25° SW 19:12:17 10° S daylight
05 Jun - 07:17:15 10° SE 07:24:05 13° ESE 07:31:50 10° E daylight
05 Jun - 09:28:38 10° SSW 09:45:30 44° SE 10:06:31 10° E daylight
05 Jun - 11:49:16 10° WSW 12:10:53 71° SSE 12:32:35 10° E daylight
05 Jun - 14:14:21 10° W 14:38:08 76° S 14:55:53 10° ESE daylight
05 Jun - 16:42:05 10° W 17:03:01 53° SSW 17:16:08 10° SE daylight
05 Jun - 19:13:33 10° W 19:23:28 18° SW 19:30:53 10° SSW daylight
06 Jun - 07:33:40 10° SSE 07:44:13 20° SE 07:57:21 10° E daylight
06 Jun - 09:48:43 10° SW 10:06:18 52° SSE 10:28:19 10° E daylight
06 Jun - 12:10:22 10° WSW 12:32:24 75° S 12:53:55 10° E daylight
06 Jun - 14:35:55 10° W 14:59:36 73° SSW 15:16:51 10° ESE daylight
06 Jun - 17:03:59 10° W 17:23:42 44° SW 17:36:19 10° SSE daylight
06 Jun - 19:39:09 10° WSW 19:43:29 12° WSW 19:47:17 10° SW daylight
